Palma de Mallorca, Spain

2:25 AM CET on March 25, 2017 (GMT +0100)
Palma de Mallorca

Weather History for 08306 - November, 2013

Change the Weather History Date:

Saturday, November 9, 2013

  Actual Average Record
Temperature  
Mean Temperature 60 °F -  
Max Temperature 70 °F 62 °F - ()
Min Temperature 51 °F 44 °F - ()
Degree Days  
Heating Degree Days 4    
Growing Degree Days 10 (Base 50)    
Moisture  
Dew Point 54 °F    
Average Humidity 79    
Maximum Humidity 100    
Minimum Humidity 56    
Precipitation  
Precipitation 0.00 in 0.06 in - ()
Sea Level Pressure  
Sea Level Pressure 30.11 in    
Wind  
Wind Speed 3 mph ()    
Max Wind Speed 17 mph    
Max Gust Speed 17 mph    
Visibility 6.7 miles    
Events      
T = Trace of Precipitation, MM = Missing Value Source: Averaged Metar Reports

Daily Weather History Graph

Daily Weather History Graph

Search for Another Location

Airport or City:

Trip Planner

Search our weather history database for the weather conditions in past years. The results will help you decide how hot, cold, wet, or windy it might be!

Date:

Astronomy

Nov. 09, 2013 Rise Set
Actual Time 7:26 AM CET 5:38 PM CET
Civil Twilight 6:57 AM CET 6:07 PM CET
Nautical Twilight 6:25 AM CET 6:39 PM CET
Astronomical Twilight 5:54 AM CET 7:11 PM CET
Moon 12:53 PM CET (11/9) 11:51 PM CET (11/9)
Length of Visible Light 11h 09m
Length of Day
10h 12m
Waxing Crescent, 41% of the Moon is Illuminated
Nov 9
Waxing Crescent
Nov 10
First Quarter
Nov 17
Full
Nov 25
Last Quarter
Dec 3
New

Hourly Weather History & Observations

Time (CET) Temp. Dew Point Humidity Pressure Visibility Wind Dir Wind Speed Gust Speed Precip Events Conditions
12:00 AM 59.0 °F 57.2 °F 94% 30.04 in - Calm Calm - N/A   Clear
12:30 AM 57.2 °F 55.4 °F 94% 30.04 in - Calm Calm - N/A   Clear
1:00 AM 56 °F 55 °F 95% 30.06 in 9 mi Calm Calm - -   Clear
1:00 AM 57.2 °F 55.4 °F 94% 30.04 in - ENE 2.3 mph - N/A   Clear
1:30 AM 57.2 °F 55.4 °F 94% 30.04 in - Calm Calm - N/A   Clear
2:00 AM 55.4 °F 55.4 °F 100% 30.04 in - Calm Calm - N/A   Clear
2:30 AM 55.4 °F 53.6 °F 94% 30.04 in - Calm Calm - N/A   Clear
3:00 AM 55.4 °F 53.6 °F 94% 30.04 in - Calm Calm - N/A   Clear
3:30 AM 57.2 °F 55.4 °F 94% 30.04 in - ESE 1.2 mph - N/A   Clear
4:00 AM 55.4 °F 53.6 °F 94% 30.04 in - Calm Calm - N/A   Clear
4:30 AM 55.4 °F 53.6 °F 94% 30.04 in - NE 1.2 mph - N/A   Clear
5:00 AM 55.4 °F 53.6 °F 94% 30.04 in 6.2 mi Variable 1.2 mph - N/A   Scattered Clouds
5:30 AM 55.4 °F 53.6 °F 94% 30.04 in 6.2 mi NNE 2.3 mph - N/A   Partly Cloudy
6:00 AM 55.4 °F 55.4 °F 100% 30.06 in 6.2 mi Calm Calm - N/A   Partly Cloudy
6:30 AM 57.2 °F 55.4 °F 94% 30.06 in 6.2 mi ESE 1.2 mph - N/A   Partly Cloudy
7:00 AM 57 °F 56 °F 93% 30.08 in 9 mi East 6.9 mph - -   Scattered Clouds
7:00 AM 59.0 °F 55.4 °F 88% 30.06 in 6.2 mi ENE 5.8 mph - N/A   Scattered Clouds
7:30 AM 60.8 °F 57.2 °F 88% 30.09 in 6.2 mi NE 4.6 mph - N/A   Scattered Clouds
8:00 AM 60.8 °F 57.2 °F 88% 30.09 in 6.2 mi NE 2.3 mph - N/A   Scattered Clouds
8:30 AM 60.8 °F 57.2 °F 88% 30.09 in 6.2 mi Calm Calm - N/A   Scattered Clouds
9:00 AM 64.4 °F 59.0 °F 83% 30.12 in 6.2 mi Calm Calm - N/A   Light Drizzle
9:30 AM 64.4 °F 59.0 °F 83% 30.12 in 6.2 mi Variable 2.3 mph - N/A   Mostly Cloudy
10:00 AM 66.2 °F 55.4 °F 68% 30.12 in 6.2 mi NNW 5.8 mph - N/A   Mostly Cloudy
10:30 AM 66.2 °F 55.4 °F 68% 30.12 in 6.2 mi NNW 8.1 mph - N/A   Mostly Cloudy
11:00 AM 68.0 °F 55.4 °F 64% 30.12 in 6.2 mi North 9.2 mph - N/A   Scattered Clouds
11:30 AM 69.8 °F 53.6 °F 56% 30.12 in 6.2 mi North 3.5 mph 17.3 mph N/A   Scattered Clouds
12:00 PM 64.4 °F 59.0 °F 83% 30.15 in 6.2 mi ENE 16.1 mph - N/A   Mostly Cloudy
12:30 PM 64.4 °F 57.2 °F 77% 30.12 in 6.2 mi ENE 17.3 mph - N/A   Scattered Clouds
1:00 PM 67 °F 56 °F 59% 30.15 in 12 mi ENE 17.3 mph - -   Partly Cloudy
1:00 PM 66.2 °F 57.2 °F 73% 30.12 in 6.2 mi ENE 16.1 mph - N/A   Scattered Clouds
1:30 PM 66.2 °F 57.2 °F 73% 30.12 in 6.2 mi ENE 13.8 mph - N/A   Scattered Clouds
2:00 PM 66.2 °F 57.2 °F 73% 30.12 in 6.2 mi ENE 12.7 mph - N/A   Scattered Clouds
2:30 PM 64.4 °F 57.2 °F 77% 30.12 in 6.2 mi ENE 11.5 mph - N/A   Scattered Clouds
3:00 PM 64.4 °F 55.4 °F 73% 30.12 in 6.2 mi ENE 9.2 mph - N/A   Scattered Clouds
3:30 PM 66.2 °F 55.4 °F 68% 30.12 in 6.2 mi ENE 8.1 mph - N/A   Scattered Clouds
4:00 PM 66.2 °F 55.4 °F 68% 30.12 in 6.2 mi ENE 5.8 mph - N/A   Scattered Clouds
4:30 PM 66.2 °F 53.6 °F 64% 30.12 in 6.2 mi Calm Calm - N/A   Scattered Clouds
5:00 PM 66.2 °F 53.6 °F 64% 30.12 in 6.2 mi NNW 5.8 mph - N/A   Scattered Clouds
5:30 PM 64.4 °F 51.8 °F 64% 30.12 in 6.2 mi NW 4.6 mph 16.1 mph N/A   Scattered Clouds
6:00 PM 62.6 °F 51.8 °F 68% 30.15 in 6.2 mi NW 6.9 mph - N/A   Scattered Clouds
6:30 PM 62.6 °F 51.8 °F 68% 30.15 in 6.2 mi NW 6.9 mph - N/A   Partly Cloudy
7:00 PM 61 °F 51 °F 60% 30.17 in 12 mi WNW 3.5 mph - -   Scattered Clouds
7:00 PM 60.8 °F 51.8 °F 72% 30.15 in 6.2 mi WNW 8.1 mph - N/A   Partly Cloudy
7:30 PM 60.8 °F 51.8 °F 72% 30.15 in 6.2 mi WNW 8.1 mph - N/A   Partly Cloudy
8:00 PM 60.8 °F 50.0 °F 68% 30.15 in 6.2 mi WNW 4.6 mph - N/A   Partly Cloudy
8:30 PM 60.8 °F 48.2 °F 63% 30.15 in - West 3.5 mph - N/A   Clear
9:00 PM 59.0 °F 50.0 °F 72% 30.18 in - WNW 8.1 mph - N/A   Clear
9:30 PM 57.2 °F 48.2 °F 72% 30.18 in - West 4.6 mph - N/A   Clear
10:00 PM 57.2 °F 46.4 °F 67% 30.18 in - Variable 2.3 mph - N/A   Clear
10:30 PM 57.2 °F 46.4 °F 67% 30.18 in - West 2.3 mph - N/A   Clear
11:00 PM 51.8 °F 44.6 °F 76% 30.18 in - Calm Calm - N/A   Clear
11:30 PM 51.8 °F 46.4 °F 82% 30.18 in - SSE 1.2 mph - N/A   Clear